QPF
0.01 0.00 0.01 0.02 0.03 0.04 0.03 0.03 0.03 0.02 0.02 0.02 0.01 0.01 0.01 0.02 0.02 0.02 0.02 0.02 0.03 0.04 0.04 0.03 0.03 0.04 0.04 0.03 0.04 0.03 0.03 0.03 0.03 0.04 0.04 0.04 0.03 0.04 0.08 0.14 0.17 0.11 0.07
0.00 0.00 0.00 0.02 0.02 0.03 0.03 0.02 0.03 0.02 0.03 0.02 0.02 0.02 0.02 0.04 0.04 0.03 0.02 0.03 0.03 0.03 0.03 0.02 0.03 0.04 0.04 0.03 0.04 0.03 0.02 0.03 0.04 0.06 0.06 0.03 0.02 0.03 0.06 0.10 0.16 0.11 0.06
0.00 0.00 0.00 0.01 0.02 0.03 0.02 0.02 0.03 0.02 0.03 0.03 0.03 0.03 0.03 0.04 0.05 0.04 0.03 0.03 0.04 0.03 0.02 0.02 0.02 0.03 0.04 0.03 0.03 0.02 0.02 0.04 0.07 0.10 0.10 0.06 0.04 0.04 0.08 0.06 0.07 0.08 0.08
0.00 0.00 0.00 0.01 0.01 0.02 0.02 0.03 0.03 0.03 0.02 0.03 0.03 0.04 0.04 0.05 0.05 0.04 0.05 0.04 0.03 0.03 0.02 0.02 0.02 0.03 0.05 0.03 0.02 0.02 0.02 0.03 0.08 0.16 0.13 0.09 0.06 0.02 0.03 0.04 0.06 0.07 0.07
0.00 0.00 0.00 0.01 0.01 0.01 0.02 0.03 0.03 0.03 0.03 0.03 0.02 0.02 0.03 0.04 0.04 0.04 0.05 0.05 0.03 0.03 0.02 0.02 0.02 0.02 0.03 0.03 0.02 0.02 0.03 0.04 0.11 0.17 0.09 0.08 0.05 0.02 0.03 0.05 0.07 0.06 0.05
0.00 0.00 0.00 0.01 0.01 0.01 0.02 0.02 0.02 0.02 0.02 0.02 0.02 0.02 0.02 0.03 0.04 0.04 0.03 0.04 0.03 0.03 0.02 0.02 0.03 0.03 0.03 0.02 0.02 0.02 0.02 0.06 0.14 0.08 0.08 0.08 0.04 0.03 0.05 0.07 0.06 0.04 0.03
0.01 0.01 0.00 0.00 0.01 0.02 0.02 0.02 0.02 0.01 0.02 0.02 0.02 0.02 0.03 0.03 0.04 0.04 0.03 0.03 0.03 0.03 0.02 0.02 0.04 0.05 0.04 0.03 0.02 0.02 0.02 0.08 0.10 0.06 0.10 0.08 0.03 0.05 0.05 0.05 0.03 0.03 0.03
0.01 0.00 0.00 0.01 0.01 0.02 0.02 0.02 0.01 0.01 0.01 0.02 0.02 0.02 0.02 0.03 0.05 0.06 0.04 0.03 0.04 0.03 0.02 0.02 0.04 0.04 0.04 0.02 0.01 0.01 0.03 0.08 0.06 0.04 0.06 0.04 0.02 0.04 0.03 0.02 0.02 0.03 0.04
0.00 0.00 0.00 0.00 0.00 0.01 0.02 0.02 0.02 0.02 0.02 0.01 0.02 0.02 0.01 0.02 0.03 0.04 0.04 0.04 0.03 0.03 0.02 0.02 0.02 0.02 0.02 0.02 0.01 0.01 0.02 0.05 0.05 0.05 0.03 0.02 0.01 0.02 0.03 0.03 0.03 0.03 0.03
0.01 0.00 0.00 0.01 0.01 0.01 0.02 0.02 0.03 0.02 0.02 0.02 0.02 0.02 0.02 0.02 0.03 0.03 0.03 0.03 0.02 0.02 0.02 0.02 0.01 0.01 0.01 0.01 0.01 0.01 0.01 0.03 0.05 0.06 0.03 0.01 0.02 0.03 0.03 0.04 0.03 0.02 0.03
0.01 0.01 0.00 0.01 0.01 0.02 0.03 0.02 0.03 0.02 0.02 0.03 0.03 0.03 0.08 0.12 0.07 0.06 0.04 0.02 0.01 0.01 0.01 0.02 0.01 0.01 0.02 0.01 0.01 0.02 0.02 0.02 0.09 0.08 0.03 0.01 0.02 0.03 0.02 0.03 0.03 0.02 0.03
0.01 0.01 0.01 0.01 0.02 0.02 0.03 0.03 0.06 0.05 0.06 0.10 0.07 0.08 0.13 0.14 0.11 0.09 0.04 0.02 0.02 0.01 0.02 0.02 0.03 0.05 0.04 0.02 0.01 0.02 0.02 0.01 0.03 0.03 0.01 0.01 0.01 0.01 0.01 0.01 0.02 0.02 0.02
0.00 0.01 0.01 0.01 0.02 0.03 0.04 0.03 0.05 0.07 0.09 0.10 0.07 0.07 0.09 0.07 0.06 0.07 0.06 0.04 0.04 0.04 0.06 0.05 0.05 0.07 0.05 0.02 0.02 0.02 0.01 0.00 0.02 0.03 0.02 0.01 0.01 0.01 0.01 0.01 0.01 0.01 0.01
0.01 0.00 0.01 0.01 0.02 0.02 0.03 0.05 0.05 0.05 0.06 0.07 0.07 0.06 0.05 0.06 0.08 0.08 0.09 0.09 0.07 0.08 0.10 0.07 0.07 0.07 0.06 0.05 0.03 0.01 0.00 0.00 0.03 0.04 0.04 0.02 0.01 0.02 0.01 0.01 0.01 0.01 0.01
0.03 0.02 0.01 0.02 0.02 0.03 0.04 0.07 0.08 0.06 0.05 0.06 0.05 0.06 0.04 0.04 0.06 0.06 0.06 0.08 0.05 0.03 0.04 0.06 0.05 0.06 0.07 0.06 0.02 0.01 0.01 0.00 0.01 0.02 0.03 0.01 0.01 0.01 0.02 0.02 0.02 0.01 0.02
0.02 0.02 0.02 0.01 0.02 0.03 0.04 0.06 0.10 0.06 0.05 0.04 0.03 0.04 0.03 0.04 0.05 0.06 0.05 0.05 0.05 0.04 0.04 0.04 0.04 0.05 0.05 0.04 0.02 0.02 0.02 0.01 0.01 0.02 0.03 0.02 0.01 0.01 0.01 0.01 0.01 0.02 0.02
0.02 0.03 0.03 0.02 0.02 0.03 0.04 0.04 0.05 0.03 0.02 0.03 0.04 0.04 0.03 0.04 0.05 0.05 0.06 0.05 0.05 0.05 0.04 0.04 0.04 0.04 0.04 0.04 0.03 0.03 0.03 0.03 0.02 0.03 0.04 0.04 0.03 0.01 0.00 0.00 0.00 0.00 0.01
0.01 0.02 0.02 0.02 0.03 0.03 0.05 0.05 0.07 0.05 0.05 0.07 0.05 0.05 0.04 0.04 0.03 0.04 0.05 0.06 0.07 0.07 0.06 0.05 0.04 0.04 0.04 0.06 0.05 0.06 0.06 0.05 0.03 0.02 0.02 0.04 0.05 0.03 0.01 0.01 0.00 0.01 0.01
0.02 0.02 0.02 0.03 0.03 0.05 0.05 0.06 0.07 0.06 0.06 0.07 0.10 0.11 0.06 0.05 0.02 0.03 0.05 0.07 0.08 0.08 0.06 0.05 0.05 0.06 0.06 0.06 0.04 0.06 0.06 0.07 0.06 0.03 0.02 0.02 0.04 0.05 0.04 0.01 0.00 0.01 0.01
0.01 0.02 0.03 0.04 0.03 0.04 0.05 0.06 0.08 0.06 0.06 0.06 0.08 0.07 0.05 0.06 0.03 0.04 0.05 0.05 0.04 0.06 0.07 0.07 0.07 0.05 0.05 0.04 0.03 0.06 0.05 0.04 0.05 0.04 0.02 0.02 0.02 0.02 0.03 0.04 0.01 0.01 0.00
0.00 0.01 0.03 0.04 0.05 0.04 0.05 0.07 0.08 0.08 0.08 0.07 0.06 0.04 0.04 0.05 0.05 0.05 0.05 0.08 0.05 0.06 0.07 0.05 0.06 0.05 0.04 0.04 0.06 0.09 0.06 0.05 0.05 0.05 0.04 0.02 0.01 0.02 0.03 0.05 0.03 0.04 0.02
0.01 0.01 0.02 0.03 0.04 0.03 0.06 0.09 0.10 0.11 0.08 0.07 0.07 0.09 0.07 0.07 0.07 0.05 0.07 0.08 0.09 0.10 0.09 0.08 0.09 0.08 0.07 0.06 0.10 0.15 0.12 0.11 0.07 0.06 0.04 0.03 0.02 0.02 0.03 0.03 0.04 0.05 0.03
0.01 0.01 0.02 0.03 0.04 0.05 0.08 0.08 0.10 0.11 0.09 0.10 0.08 0.09 0.08 0.07 0.07 0.07 0.09 0.09 0.11 0.08 0.11 0.11 0.11 0.10 0.11 0.09 0.08 0.12 0.14 0.16 0.12 0.06 0.03 0.04 0.04 0.03 0.03 0.04 0.04 0.05 0.04
0.01 0.01 0.02 0.04 0.04 0.06 0.08 0.09 0.11 0.13 0.13 0.14 0.12 0.10 0.11 0.09 0.08 0.08 0.10 0.12 0.12 0.10 0.12 0.08 0.12 0.14 0.15 0.11 0.10 0.09 0.09 0.12 0.16 0.12 0.07 0.05 0.05 0.05 0.04 0.04 0.05 0.09 0.08
0.01 0.02 0.02 0.04 0.06 0.07 0.09 0.09 0.12 0.13 0.14 0.13 0.13 0.13 0.16 0.11 0.09 0.08 0.11 0.15 0.13 0.10 0.12 0.11 0.16 0.13 0.13 0.11 0.11 0.13 0.15 0.15 0.13 0.14 0.15 0.12 0.09 0.05 0.05 0.08 0.09 0.13 0.12
0.01 0.02 0.03 0.06 0.07 0.09 0.09 0.09 0.10 0.12 0.15 0.13 0.13 0.14 0.12 0.11 0.09 0.09 0.11 0.15 0.14 0.14 0.14 0.13 0.12 0.11 0.13 0.14 0.12 0.12 0.12 0.13 0.12 0.12 0.16 0.15 0.13 0.08 0.07 0.07 0.08 0.07 0.07
MSLP
1011.30 1011.49 1011.83 1012.27 1012.75 1013.17 1013.49 1013.65 1013.66 1013.57 1013.43 1013.30 1013.25 1013.29 1013.41 1013.59 1013.78 1013.97 1014.11 1014.20 1014.26 1014.29 1014.34 1014.39 1014.47 1014.57 1014.67 1014.77 1014.86 1014.94 1015.03 1015.14 1015.28 1015.45 1015.66 1015.89 1016.14 1016.38 1016.62 1016.84 1017.04 1017.23 1017.41
1011.36 1011.67 1012.12 1012.65 1013.18 1013.62 1013.90 1014.00 1013.94 1013.77 1013.57 1013.42 1013.37 1013.44 1013.61 1013.84 1014.09 1014.31 1014.47 1014.57 1014.62 1014.66 1014.71 1014.77 1014.86 1014.97 1015.08 1015.18 1015.25 1015.31 1015.38 1015.46 1015.59 1015.76 1015.99 1016.25 1016.53 1016.80 1017.06 1017.29 1017.50 1017.68 1017.85
1011.30 1011.72 1012.28 1012.90 1013.49 1013.96 1014.23 1014.31 1014.21 1014.01 1013.78 1013.63 1013.59 1013.68 1013.88 1014.14 1014.40 1014.62 1014.78 1014.88 1014.93 1014.97 1015.03 1015.11 1015.23 1015.35 1015.47 1015.56 1015.62 1015.65 1015.69 1015.75 1015.87 1016.05 1016.29 1016.57 1016.88 1017.18 1017.46 1017.70 1017.90 1018.08 1018.25
1011.11 1011.63 1012.29 1013.01 1013.67 1014.18 1014.48 1014.57 1014.47 1014.28 1014.07 1013.93 1013.91 1014.02 1014.23 1014.49 1014.74 1014.94 1015.08 1015.15 1015.20 1015.25 1015.33 1015.44 1015.59 1015.73 1015.85 1015.93 1015.97 1015.98 1015.98 1016.02 1016.13 1016.31 1016.57 1016.88 1017.21 1017.53 1017.81 1018.06 1018.26 1018.44 1018.61
1010.84 1011.45 1012.20 1013.00 1013.73 1014.30 1014.65 1014.78 1014.72 1014.57 1014.40 1014.30 1014.32 1014.44 1014.65 1014.89 1015.11 1015.27 1015.37 1015.43 1015.47 1015.54 1015.64 1015.79 1015.96 1016.13 1016.25 1016.31 1016.32 1016.29 1016.26 1016.28 1016.38 1016.57 1016.85 1017.18 1017.53 1017.86 1018.15 1018.39 1018.59 1018.76 1018.93
1010.57 1011.25 1012.07 1012.94 1013.73 1014.36 1014.76 1014.94 1014.95 1014.85 1014.75 1014.70 1014.75 1014.89 1015.09 1015.30 1015.48 1015.61 1015.68 1015.72 1015.77 1015.85 1015.99 1016.17 1016.37 1016.54 1016.66 1016.69 1016.66 1016.59 1016.53 1016.53 1016.63 1016.84 1017.14 1017.50 1017.87 1018.21 1018.50 1018.73 1018.90 1019.06 1019.23
1010.37 1011.09 1011.96 1012.87 1013.70 1014.37 1014.82 1015.05 1015.12 1015.09 1015.05 1015.06 1015.15 1015.31 1015.51 1015.70 1015.85 1015.94 1015.99 1016.02 1016.08 1016.19 1016.36 1016.57 1016.79 1016.96 1017.05 1017.05 1016.97 1016.86 1016.78 1016.77 1016.87 1017.11 1017.44 1017.83 1018.23 1018.58 1018.87 1019.07 1019.22 1019.36 1019.51
1010.31 1011.04 1011.92 1012.83 1013.66 1014.34 1014.81 1015.08 1015.20 1015.23 1015.26 1015.33 1015.46 1015.65 1015.85 1016.03 1016.16 1016.24 1016.27 1016.31 1016.39 1016.53 1016.72 1016.95 1017.17 1017.33 1017.39 1017.35 1017.23 1017.08 1016.97 1016.96 1017.09 1017.36 1017.74 1018.18 1018.61 1018.97 1019.25 1019.43 1019.55 1019.65 1019.77
1010.39 1011.10 1011.94 1012.81 1013.61 1014.26 1014.72 1015.00 1015.15 1015.24 1015.32 1015.45 1015.63 1015.85 1016.07 1016.26 1016.39 1016.46 1016.51 1016.56 1016.66 1016.81 1017.03 1017.26 1017.47 1017.60 1017.63 1017.54 1017.38 1017.21 1017.09 1017.09 1017.25 1017.57 1018.01 1018.50 1018.96 1019.35 1019.63 1019.79 1019.87 1019.93 1020.01
1010.59 1011.24 1012.01 1012.81 1013.54 1014.13 1014.55 1014.82 1014.98 1015.10 1015.23 1015.41 1015.64 1015.90 1016.16 1016.36 1016.51 1016.60 1016.66 1016.73 1016.85 1017.02 1017.24 1017.46 1017.65 1017.75 1017.74 1017.62 1017.43 1017.24 1017.13 1017.16 1017.36 1017.73 1018.22 1018.76 1019.27 1019.68 1019.96 1020.11 1020.17 1020.18 1020.22
1010.86 1011.42 1012.10 1012.80 1013.43 1013.94 1014.30 1014.54 1014.70 1014.85 1015.02 1015.25 1015.53 1015.83 1016.12 1016.36 1016.54 1016.65 1016.73 1016.82 1016.95 1017.12 1017.33 1017.54 1017.70 1017.77 1017.73 1017.59 1017.39 1017.21 1017.11 1017.17 1017.41 1017.83 1018.37 1018.95 1019.50 1019.93 1020.23 1020.37 1020.41 1020.40 1020.40
1011.12 1011.60 1012.17 1012.76 1013.28 1013.70 1014.00 1014.21 1014.36 1014.52 1014.73 1015.00 1015.33 1015.67 1016.00 1016.28 1016.48 1016.63 1016.73 1016.83 1016.96 1017.12 1017.32 1017.50 1017.64 1017.69 1017.64 1017.50 1017.31 1017.14 1017.08 1017.17 1017.44 1017.89 1018.45 1019.06 1019.63 1020.09 1020.40 1020.55 1020.59 1020.56 1020.54
1011.36 1011.75 1012.22 1012.70 1013.13 1013.46 1013.70 1013.88 1014.03 1014.20 1014.43 1014.74 1015.10 1015.48 1015.84 1016.15 1016.38 1016.54 1016.66 1016.77 1016.89 1017.05 1017.22 1017.39 1017.52 1017.57 1017.52 1017.39 1017.24 1017.11 1017.07 1017.19 1017.48 1017.93 1018.50 1019.11 1019.68 1020.14 1020.47 1020.64 1020.69 1020.68 1020.66
1011.55 1011.88 1012.26 1012.65 1013.00 1013.27 1013.47 1013.62 1013.77 1013.95 1014.20 1014.52 1014.90 1015.30 1015.67 1016.00 1016.25 1016.43 1016.56 1016.67 1016.79 1016.94 1017.10 1017.26 1017.39 1017.45 1017.43 1017.35 1017.24 1017.15 1017.15 1017.28 1017.56 1017.99 1018.53 1019.10 1019.65 1020.11 1020.44 1020.64 1020.73 1020.75 1020.75
1011.71 1011.99 1012.31 1012.64 1012.93 1013.16 1013.34 1013.49 1013.63 1013.82 1014.07 1014.39 1014.76 1015.15 1015.53 1015.85 1016.11 1016.30 1016.44 1016.56 1016.68 1016.82 1016.98 1017.15 1017.29 1017.38 1017.41 1017.38 1017.33 1017.30 1017.33 1017.45 1017.71 1018.09 1018.55 1019.06 1019.56 1019.99 1020.33 1020.56 1020.70 1020.78 1020.83
1011.87 1012.11 1012.40 1012.68 1012.95 1013.17 1013.34 1013.50 1013.65 1013.83 1014.07 1014.36 1014.70 1015.06 1015.41 1015.71 1015.97 1016.16 1016.31 1016.44 1016.58 1016.73 1016.90 1017.08 1017.25 1017.39 1017.47 1017.51 1017.52 1017.54 1017.58 1017.70 1017.91 1018.21 1018.59 1019.00 1019.42 1019.81 1020.14 1020.40 1020.60 1020.74 1020.86
1012.02 1012.25 1012.51 1012.78 1013.04 1013.27 1013.46 1013.63 1013.79 1013.97 1014.17 1014.42 1014.70 1015.00 1015.30 1015.58 1015.82 1016.02 1016.18 1016.34 1016.50 1016.67 1016.87 1017.07 1017.27 1017.45 1017.60 1017.70 1017.77 1017.82 1017.88 1017.98 1018.12 1018.33 1018.60 1018.91 1019.24 1019.57 1019.88 1020.16 1020.41 1020.62 1020.82
1012.16 1012.38 1012.63 1012.90 1013.18 1013.43 1013.65 1013.84 1014.01 1014.17 1014.34 1014.53 1014.74 1014.97 1015.21 1015.44 1015.66 1015.87 1016.06 1016.25 1016.44 1016.65 1016.87 1017.10 1017.34 1017.56 1017.74 1017.89 1018.01 1018.09 1018.15 1018.22 1018.31 1018.43 1018.59 1018.78 1019.02 1019.28 1019.55 1019.84 1020.12 1020.39 1020.65
1012.26 1012.48 1012.72 1013.00 1013.29 1013.58 1013.84 1014.07 1014.25 1014.40 1014.53 1014.66 1014.79 1014.94 1015.12 1015.31 1015.51 1015.73 1015.95 1016.17 1016.41 1016.65 1016.90 1017.16 1017.41 1017.65 1017.87 1018.05 1018.19 1018.29 1018.36 1018.40 1018.43 1018.47 1018.53 1018.62 1018.75 1018.93 1019.16 1019.43 1019.72 1020.03 1020.34
1012.29 1012.49 1012.74 1013.02 1013.34 1013.67 1013.98 1014.24 1014.45 1014.60 1014.70 1014.77 1014.84 1014.92 1015.03 1015.18 1015.37 1015.60 1015.85 1016.12 1016.39 1016.67 1016.94 1017.21 1017.47 1017.72 1017.94 1018.14 1018.29 1018.40 1018.47 1018.49 1018.48 1018.45 1018.43 1018.43 1018.47 1018.57 1018.73 1018.95 1019.23 1019.54 1019.87
1012.22 1012.41 1012.65 1012.95 1013.29 1013.66 1014.02 1014.33 1014.58 1014.74 1014.83 1014.87 1014.88 1014.91 1014.97 1015.09 1015.26 1015.50 1015.78 1016.08 1016.38 1016.69 1016.98 1017.25 1017.50 1017.74 1017.96 1018.15 1018.31 1018.42 1018.49 1018.51 1018.48 1018.42 1018.33 1018.26 1018.21 1018.22 1018.30 1018.45 1018.67 1018.95 1019.26
1012.04 1012.23 1012.47 1012.77 1013.14 1013.54 1013.95 1014.32 1014.61 1014.81 1014.91 1014.93 1014.92 1014.91 1014.93 1015.02 1015.18 1015.42 1015.71 1016.04 1016.37 1016.69 1016.98 1017.25 1017.49 1017.71 1017.92 1018.10 1018.26 1018.39 1018.47 1018.50 1018.47 1018.39 1018.28 1018.15 1018.03 1017.95 1017.93 1017.99 1018.13 1018.33 1018.58
1011.79 1011.98 1012.21 1012.52 1012.90 1013.34 1013.79 1014.22 1014.56 1014.80 1014.93 1014.97 1014.95 1014.91 1014.91 1014.98 1015.12 1015.35 1015.64 1015.97 1016.31 1016.63 1016.92 1017.18 1017.41 1017.62 1017.82 1018.01 1018.18 1018.34 1018.45 1018.51 1018.50 1018.43 1018.31 1018.14 1017.97 1017.81 1017.70 1017.65 1017.67 1017.77 1017.93
1011.52 1011.72 1011.95 1012.26 1012.64 1013.10 1013.58 1014.04 1014.44 1014.73 1014.89 1014.95 1014.94 1014.90 1014.88 1014.92 1015.04 1015.24 1015.51 1015.82 1016.15 1016.46 1016.75 1017.01 1017.24 1017.46 1017.67 1017.88 1018.09 1018.29 1018.45 1018.56 1018.60 1018.56 1018.45 1018.27 1018.06 1017.84 1017.63 1017.48 1017.38 1017.36 1017.42
1011.29 1011.50 1011.74 1012.03 1012.41 1012.86 1013.35 1013.83 1014.26 1014.59 1014.80 1014.88 1014.88 1014.84 1014.80 1014.80 1014.87 1015.03 1015.26 1015.53 1015.84 1016.14 1016.43 1016.70 1016.95 1017.19 1017.45 1017.70 1017.97 1018.23 1018.46 1018.64 1018.75 1018.76 1018.68 1018.51 1018.28 1018.02 1017.75 1017.50 1017.30 1017.17 1017.11
1011.14 1011.38 1011.61 1011.89 1012.23 1012.65 1013.13 1013.61 1014.04 1014.39 1014.62 1014.73 1014.74 1014.69 1014.62 1014.58 1014.59 1014.68 1014.85 1015.08 1015.35 1015.63 1015.92 1016.21 1016.50 1016.80 1017.12 1017.45 1017.80 1018.14 1018.45 1018.71 1018.89 1018.97 1018.94 1018.80 1018.59 1018.31 1018.00 1017.69 1017.42 1017.19 1017.04
Thickness
5795 5791 5787 5785 5784 5782 5781 5779 5778 5777 5776 5775 5774 5773 5772 5771 5770 5768 5767 5766 5765 5764 5763 5762 5761 5761 5760 5759 5758 5756 5755 5754 5753 5752 5751 5749 5748 5746 5745 5743 5742 5740 5738
5799 5791 5786 5785 5783 5781 5780 5778 5777 5775 5774 5773 5772 5771 5770 5769 5768 5766 5765 5764 5763 5762 5761 5760 5759 5758 5758 5757 5756 5755 5753 5752 5751 5750 5749 5747 5745 5744 5743 5742 5740 5738 5736
5799 5791 5786 5784 5782 5780 5778 5777 5775 5774 5772 5771 5770 5769 5768 5767 5766 5764 5763 5762 5761 5760 5759 5758 5757 5756 5756 5755 5754 5753 5752 5751 5750 5749 5748 5746 5743 5742 5741 5740 5738 5736 5734
5800 5793 5787 5783 5780 5779 5777 5775 5774 5772 5770 5769 5768 5767 5766 5765 5764 5763 5761 5760 5759 5758 5757 5756 5755 5754 5754 5753 5752 5751 5751 5750 5749 5748 5747 5745 5742 5739 5738 5737 5735 5734 5732
5799 5790 5784 5781 5779 5777 5776 5774 5772 5770 5769 5768 5766 5765 5764 5763 5762 5761 5759 5758 5757 5756 5755 5754 5753 5752 5752 5751 5751 5751 5750 5749 5748 5748 5745 5742 5739 5737 5736 5735 5733 5732 5730
5797 5789 5783 5780 5778 5776 5774 5772 5771 5769 5767 5766 5765 5763 5762 5761 5760 5759 5758 5756 5755 5754 5753 5752 5751 5751 5750 5749 5749 5749 5749 5749 5748 5747 5744 5740 5737 5736 5735 5733 5732 5730 5728
5797 5789 5782 5779 5776 5775 5773 5771 5769 5767 5766 5765 5763 5762 5761 5760 5758 5757 5756 5755 5754 5753 5752 5751 5750 5749 5749 5748 5748 5748 5748 5748 5748 5745 5742 5738 5735 5734 5733 5731 5730 5728 5727
5799 5789 5781 5778 5775 5773 5771 5769 5768 5766 5765 5763 5762 5761 5759 5758 5757 5756 5755 5753 5752 5751 5750 5749 5749 5748 5747 5747 5748 5748 5748 5748 5748 5744 5740 5736 5734 5733 5731 5730 5728 5727 5726
5800 5790 5783 5778 5775 5772 5770 5768 5766 5765 5763 5762 5761 5759 5758 5757 5756 5755 5753 5752 5751 5750 5749 5749 5748 5747 5747 5747 5747 5748 5748 5748 5747 5743 5739 5735 5732 5731 5730 5728 5727 5726 5724
5801 5795 5788 5783 5778 5774 5770 5767 5766 5764 5763 5761 5760 5759 5758 5756 5755 5754 5753 5751 5750 5749 5749 5748 5747 5747 5746 5747 5747 5747 5748 5748 5748 5743 5738 5734 5732 5730 5729 5727 5726 5725 5723
5799 5797 5793 5787 5781 5778 5774 5769 5766 5764 5762 5761 5759 5758 5757 5757 5756 5754 5753 5751 5750 5749 5748 5748 5747 5747 5746 5747 5747 5748 5748 5748 5747 5743 5737 5733 5731 5730 5728 5727 5726 5724 5723
5794 5795 5794 5790 5785 5782 5778 5770 5768 5766 5763 5762 5761 5759 5758 5758 5757 5756 5753 5751 5750 5749 5748 5748 5748 5747 5747 5748 5749 5749 5750 5750 5748 5742 5736 5733 5731 5730 5728 5727 5725 5724 5723
5796 5795 5794 5789 5785 5783 5779 5774 5771 5769 5765 5764 5762 5761 5760 5759 5757 5756 5753 5751 5751 5750 5750 5750 5749 5749 5750 5751 5751 5751 5752 5752 5747 5742 5736 5733 5731 5730 5728 5727 5726 5724 5723
5797 5795 5793 5790 5786 5782 5779 5777 5774 5771 5767 5765 5763 5763 5761 5760 5759 5757 5756 5755 5754 5754 5753 5753 5753 5752 5752 5752 5753 5753 5753 5751 5747 5742 5736 5734 5732 5730 5729 5727 5726 5724 5723
5795 5794 5792 5789 5784 5781 5778 5775 5774 5772 5769 5767 5765 5763 5762 5761 5760 5758 5757 5757 5757 5756 5755 5755 5755 5753 5753 5752 5753 5754 5753 5752 5749 5744 5738 5735 5733 5732 5729 5728 5726 5724 5723
5796 5793 5791 5788 5783 5779 5776 5774 5773 5772 5770 5768 5766 5764 5762 5762 5760 5758 5757 5757 5758 5758 5757 5756 5755 5754 5753 5753 5754 5754 5753 5752 5749 5746 5740 5737 5734 5733 5731 5729 5727 5726 5724
5797 5795 5791 5787 5783 5779 5776 5774 5774 5773 5771 5769 5767 5764 5762 5761 5760 5759 5758 5758 5759 5759 5758 5757 5756 5755 5755 5754 5754 5753 5753 5752 5750 5747 5743 5740 5737 5734 5732 5731 5729 5727 5725
5800 5795 5791 5789 5784 5779 5777 5774 5774 5774 5772 5769 5767 5765 5763 5762 5761 5760 5760 5759 5759 5758 5758 5757 5756 5755 5755 5754 5753 5753 5753 5751 5750 5749 5747 5744 5741 5738 5735 5733 5730 5729 5727
5802 5796 5791 5789 5784 5780 5777 5775 5773 5773 5772 5770 5768 5766 5764 5762 5762 5761 5761 5760 5759 5758 5758 5758 5757 5755 5753 5753 5753 5753 5753 5752 5751 5751 5749 5748 5745 5743 5739 5736 5733 5731 5729
5803 5798 5792 5789 5785 5781 5778 5775 5773 5772 5771 5770 5769 5767 5765 5763 5763 5762 5762 5761 5760 5759 5758 5757 5756 5755 5754 5753 5754 5754 5753 5754 5753 5752 5752 5751 5749 5747 5744 5741 5736 5733 5731
5803 5797 5793 5788 5785 5781 5777 5774 5770 5769 5770 5770 5769 5768 5766 5765 5764 5763 5762 5761 5760 5758 5757 5756 5755 5753 5752 5754 5751 5748 5752 5755 5754 5753 5753 5752 5751 5750 5747 5744 5740 5737 5735
5803 5798 5794 5789 5785 5782 5779 5776 5774 5772 5771 5771 5770 5769 5767 5766 5765 5764 5761 5760 5760 5757 5756 5755 5754 5751 5751 5753 5748 5742 5738 5742 5749 5755 5753 5752 5752 5751 5749 5747 5744 5742 5739
5804 5799 5796 5791 5787 5784 5781 5778 5775 5771 5769 5768 5768 5767 5768 5766 5765 5764 5763 5761 5759 5758 5755 5755 5754 5750 5747 5751 5752 5744 5736 5733 5741 5749 5753 5753 5753 5751 5750 5749 5746 5744 5743
5807 5803 5798 5793 5788 5785 5782 5778 5773 5768 5764 5766 5766 5767 5767 5766 5765 5765 5763 5761 5759 5758 5756 5755 5755 5753 5750 5747 5750 5751 5749 5745 5736 5735 5744 5750 5751 5750 5749 5749 5749 5746 5744
5810 5805 5799 5793 5788 5785 5781 5777 5773 5770 5768 5768 5768 5767 5766 5766 5765 5765 5764 5763 5760 5759 5758 5756 5756 5753 5751 5748 5748 5747 5746 5745 5743 5735 5732 5738 5743 5747 5748 5747 5746 5745 5742
5811 5806 5799 5792 5787 5784 5780 5777 5773 5770 5768 5767 5766 5765 5764 5765 5765 5765 5764 5763 5761 5759 5758 5757 5756 5754 5752 5750 5749 5747 5743 5740 5738 5737 5732 5733 5735 5741 5746 5746 5745 5744 5741